Regional Weather Roundup
Issued by NWS

Home | Current Version | Previous Version | Graphics & Text | Print | Product List | Glossary On
Versions: 1 2 3 4 5 6 7 8 9 10 11 12 13 14 15 16 17 18 19 20 21 22 23 24 25 26 27 28 29 30 31 32 33 34 35 36 37 38 39 40 41 42 43 44 45 46 47 48 49 50
000
ASUS45 KSLC 220410
RWRUT

UTAH REGIONAL WEATHER ROUNDUP
NATIONAL WEATHER SERVICE SALT LAKE CITY UT
1000 PM MDT TUE MAR 21 2017

UTZ001>011-023>025-220500-

NORTHERN UTAH

CITY           SKY/WX    TMP DP  RH WIND       PRES   REMARKS
BRIGHAM CITY     N/A     64  37  37 S9G15     29.84R
HILL AFB       CLOUDY    64  31  28 S16G24    29.88R
LOGAN          CLOUDY    68  30  24 S24G39    29.83R
OGDEN          CLOUDY    66  31  27 S16       29.86R
SALT LAKE CITY MOCLDY    67  30  25 S12G22    29.86R
WENDOVER       CLOUDY    57  37  47 CALM      29.89F
HEBER CITY     CLOUDY    63  25  23 S10G17    29.95S

$$

UTZ011>015-024>027-220500-

CENTRAL/NORTHEAST UTAH

CITY           SKY/WX    TMP DP  RH WIND       PRES   REMARKS
PROVO AIRPORT  MOCLDY    63  39  41 S14       29.93R
MOAB/CANYONLAN PTCLDY    60  27  28 SW10      29.96R
DELTA          MOCLDY    59  28  31 S16G22    29.96R
PRICE          CLOUDY    57  29  34 CALM      30.00R
RICHFIELD      PTCLDY    63  28  27 W8G15     30.01R
ROOSEVELT      CLOUDY    50  34  53 SW3       29.99R
VERNAL         CLOUDY    53  31  42 N5        29.97R

$$

UTZ013>016-019>022-027-220500-

SOUTHERN UTAH

CITY           SKY/WX    TMP DP  RH WIND       PRES   REMARKS
BRYCE CANYON   PTCLDY    43  32  65 S6        30.14R
CEDAR CITY     CLOUDY    58  27  30 S10       30.02R
MILFORD        CLOUDY    60  28  29 S16       29.98R
ST GEORGE      CLOUDY    69  32  25 S8        29.93R
HANKSVILLE     PTCLDY    64  27  24 S6        29.97S
KANAB          CLEAR     63  28  27 SW9       30.06R
BLANDING       CLEAR     51  20  30 N7        30.14R

$$

REGIONAL REPORTS     COLORADO/ARIZONA

CITY           SKY/WX    TMP DP  RH WIND       PRES   REMARKS
CRAIG, CO      CLOUDY    51  25  36 SW7       30.05S
GRAND JUNCTION CLEAR     57  26  30 E3        30.01R
RIFLE, CO      CLEAR     60  29  30 SE14      30.05R
MONTROSE, CO   CLEAR     50  30  46 SE7       30.10S
CORTEZ, CO     CLEAR     44  30  57 CALM      30.10R
COLORADO CITY    N/A     55  32  41 CALM      30.05S
PAGE, AZ       MOCLDY    70  10  10 SW9       29.97R
GRAND CANYON   MOCLDY    52  26  36 SW8       30.15R
KINGMAN, AZ    CLOUDY    62  17  17 SE10      30.00R
FLAGSTAFF, AZ  PTCLDY    52  25  35 SW9       30.17R

$$

REGIONAL REPORTS    NEVADA/IDAHO/WYOMING

CITY           SKY/WX    TMP DP  RH WIND       PRES   REMARKS
LAS VEGAS, NV  CLOUDY    72  42  34 S8        29.90R
ELY, NY        CLOUDY    48  39  71 SE25G39   29.99S
ELKO, NV       PTCLDY    44  36  73 VRB6      29.96R
POCATELLO, ID  CLOUDY    51  47  86 S5        29.86R
BURLEY, ID     LGT RAIN  49  44  83 W14G29    29.90R
FORT BRIDGER,    N/A     45  31  58 S10       30.04S
EVANSTON, WY   CLOUDY    49  27  42 SW20      29.99R
ROCK SPRINGS,  CLOUDY    50  29  44 S5        30.02F
KEMMERER, WY     N/A     45  30  57 SE5       30.02S

$$



USA.gov is the U.S. government's official web portal to all federal, state and local government web resources and services.